Location: Spruce Knob
(38.6995°N, 79.5330°W)
Time: 18:50:41
(UTC-05:00)

X-37B - Pass Details

Date: 04 December 2022
Orbit: 277 x 277 km, 45.0° (Epoch: 01 November)

Event Time Altitude Azimuth Distance (km) Brightness Sun altitude
Rises 18:27:28 0° 207° (SSW) 1,895 4.7 -17.3°
Reaches altitude 10° 18:29:49 10° 182° (S) 1,088 3.1 -17.7°
Enters shadow 18:30:16 12° 173° (S) 978 2.7 -17.8°
